Location: Bas-Clignon
(44.2000°N, 6.6333°E)
Time: 03:16:10
(UTC+00:00)

Radarsat Rocket - Pass Details

Date: 03 February 2023
Orbit: 933 x 1491 km, 100.6° (Epoch: 27 March)

Event Time Altitude Azimuth Distance (km) Brightness Sun altitude
Rises 17:04:53 0° 151° (SSE) 3,613 6.9 -4.1°
Reaches altitude 10° 17:07:14 10° 148° (SSE) 2,703 6.2 -4.5°
Maximum altitude 17:13:10 65° 68° (ENE) 1,130 4.1 -5.5°
Drops below altitude 10° 17:19:47 10° 349° (NNW) 3,007 6.5 -6.6°
Sets 17:22:31 0° 346° (NNW) 4,050 7.2 -7.1°
